Regional Weather Roundup
Issued by NWS

Home | Current Version | Previous Version | Text Only | Print | Product List | Glossary On
Versions: 1 2 3 4 5 6 7 8 9 10 11 12 13 14 15 16 17 18 19 20 21 22 23 24 25 26 27 28 29 30 31 32 33 34 35 36 37 38 39 40 41 42 43 44 45 46 47 48 49 50
000
ASUS43 KLMK 030402
RWRKY
KENTUCKY REGIONAL WEATHER ROUNDUP
NATIONAL WEATHER SERVICE LOUISVILLE KY
1200 AM EDT MON AUG 03 2015

NOTE "FAIR" INDICATES FEW OR NO CLOUDS BELOW 12,000 FEET
WITH NO SIGNIFICANT WEATHER AND/OR OBSTRUCTIONS TO VISIBILITY.

KYZ001>023-026-027-061>063-070>075-030500-
WESTERN AND SOUTH CENTRAL KENTUCKY

CITY           SKY/WX    TMP DP  RH WIND       PRES   REMARKS
PADUCAH        CLEAR     79  71  76 S5        29.89R
HENDERSON      CLEAR     73  66  78 S3        29.87S
OWENSBORO      CLEAR     74  67  78 S6        29.89F
HOPKINSVILLE   CLEAR     74  65  72 CALM      29.91F
BOWLING GREEN  CLEAR     71  61  70 CALM      29.92S
GLASGOW        NOT AVBL
$$

KYZ024-025-028>034-038-045-046-053-030500-
NORTH CENTRAL KENTUCKY

CITY           SKY/WX    TMP DP  RH WIND       PRES   REMARKS
LOUISVILLE/SDF CLEAR     79  62  56 S9        29.89F
LOUISVILLE/LOU CLEAR     77  64  64 SE3       29.90F
FORT KNOX      CLEAR     70  63  80 CALM      29.90F
$$

KYZ035>037-039>044-047>052-055>060-089>105-030500-
NORTHEAST KENTUCKY

CITY           SKY/WX    TMP DP  RH WIND       PRES   REMARKS
LEXINGTON      CLEAR     68  61  78 S6        29.94R
COVINGTON      CLEAR     71  62  73 S7        29.89F
FRANKFORT      CLEAR     69  63  81 CALM      29.91S
$$

KYZ054-064>069-076>088-106>120-030500-
SOUTHEAST KENTUCKY

CITY           SKY/WX    TMP DP  RH WIND       PRES   REMARKS
JACKSON        CLEAR     73  59  61 CALM      29.96R
LONDON         CLEAR     68  63  84 CALM      29.96R
SOMERSET       NOT AVBL
MIDDLESBORO    CLEAR     64  63  96 CALM      29.97S
MONTICELLO     CLEAR     64  64 100 CALM      29.98R
$$



USA.gov is the U.S. government's official web portal to all federal, state and local government web resources and services.